Regional Weather Roundup
Issued by NWS Newport/Morehead, NC

Current Version | Previous Version | Text Only | Print | Product List | Glossary Off
Versions: 1 2 3 4 5 6 7 8 9 10 11 12 13 14 15 16 17 18 19 20 21 22 23 24 25 26 27 28 29 30 31 32 33 34 35 36 37 38 39 40 41 42 43 44 45 46 47 48 49 50
000 ASUS42 KMHX 090425 RWRMHX WEATHER ROUNDUP FOR EASTERN NORTH CAROLINA NATIONAL WEATHER SERVICE NEWPORT/MOREHEAD CITY NC 1100 PM EST MON FEB 08 2016 NOTE: "FAIR" INDICATES FEW OR NO CLOUDS BELOW 12,000 FEET WITH NO SIGNIFICANT WEATHER AND/OR OBSTRUCTIONS TO VISIBILITY NCZ015>017-031-032-045>047-102-103-090500- NORTH COAST CITY SKY/WX TMP DP RH WIND PRES REMARKS EDENTON DRIZZLE 45 40 82 SW5 29.67F ELIZABETH CITY CLOUDY 41 38 89 E5 29.65F KITTY HAWK MOCLDY 43 38 83 E3 29.63F HAZE MANTEO CLEAR 42 39 91 CALM 29.64F $$ NCZ045>047-081-094-103-104-090500- CENTRAL COAST CITY SKY/WX TMP DP RH WIND PRES REMARKS FRISCO CLEAR 37 35 92 W6 29.65F SWANQUARTER N/A 45 N/A N/A NW10G20 29.62F $$ NCZ095-097-098-100-101-090500- SOUTHERN COAST CITY SKY/WX TMP DP RH WIND PRES REMARKS BEAUFORT PTCLDY 44 37 76 NW12 29.64F CEDAR ISLAND N/A 45 N/A N/A W10 29.68F JACKSONVILLE CLOUDY 43 39 86 SW3 29.66F PINEY ISLAND PTCLDY N/A N/A N/A W16 29.65F WILMINGTON CLOUDY 46 41 82 W3 29.65F $$ NCZ011>013-027>030-043-044-078>080-089-090>093-098-090500- COASTAL PLAIN CITY SKY/WX TMP DP RH WIND PRES REMARKS AHOSKIE CLOUDY 40 38 94 CALM 29.66S CLINTON PTCLDY 39 39 100 CALM 29.66F ELIZABETHTOWN CLOUDY 43 42 95 CALM 29.65F GOLDSBORO CLOUDY 41 41 100 SE1 29.63F GREENVILLE CLOUDY 41 41 100 CALM 29.68F HAVELOCK CLOUDY 44 37 76 NW7 29.65F KENANSVILLE PTCLDY 38 38 100 CALM 29.66F KINSTON CLOUDY 40 39 97 CALM 29.66F NEW BERN MOCLDY 42 37 82 CALM 29.67F RICHLANDS CLOUDY 41 36 81 CALM 29.65F ROCKY MOUNT FOG 39 38 96 CALM 29.65F VSB 1/4 WASHINGTON CLOUDY 41 39 91 CALM 29.64F WHITEVILLE CLOUDY 44 42 93 SW3 29.66F $$ AMZ130-135-150-152-154-156-158-170-250-252-270-ANZ085-086-088-633-658-670-090500- MARINE OBSERVATIONS STATION/POSITION TIME TEMP WIND PRES WAVE SWELL AIR SEA DIR/SP/G HT/PER HT/PER (UTC) (F) (DEG/KT/KT) (MB) (FT/S) (FT/S) CHESAPEAKE LIGHT 0400 44 100/ 16/ 17 1004.3 64 E VA BEACH 0350 47 52 60/ 10/ 14 1004.1 14/15 13/15 DUCK 0400 45 110/ 9/ 10 1003.4 2 E DUCK 0411 44 N/A 10/13 8/13 OREGON INLET 0400 44 45 70/ 5/ 7 1003.6 13E OREGON INLT 0400 47 N/A 15/14 13/14 HATTERAS CG 0400 48 52 280/ 24/ 29 1003.8 DIAMOND BUOY 0350 54 74 320/ 10/ 14 1003.8 11/16 11/16 CAPE LOOKOUT NOT AVBL BEAUFORT LAB 0400 45 47 320/ 5/ 10 1002.6 30 SE NEW RVR IN 0408 51 61 1003.3 30 SE NEW RVR IN 0325 61 N/A 7/ 7 3/15 27 SE WRIGHTSVLE 0408 42 60 310/ 14/ 19 1003.2 5 SE WRIGHTSVLE 0308 48 52 280/ 8/ 12 1005.4 225 S CAPE HAT 0350 64 69 250/ 25/ 33 N/A 12/14 8/14 41 SE CHARLESTON 0350 50 65 310/ 14/ 17 1006.4 7/ 8 5/ 8 $$

USA.gov is the U.S. government's official web portal to all federal, state and local government web resources and services.